,,,PA_Meas_PMT16A,,PR_Meas_QMR101_102,,RH_Meas_QMH101,,SR_Meas_QMS101,,TA_Meas_QMH101,,GenWind,,GenWind,
date,time,status,PA,status,PR,status,RH,status,SR,status,TA,status,DirAvg,status,SpdAvg,
2009-09-27, 00:00:04,VALID,998.854,VALID,0,VALID,85.406,VALID,0,VALID,23.2524,VALID,311,VALID,0.388281,
2009-09-27, 00:01:04,VALID,998.842,VALID,0,VALID,85.2229,VALID,0,VALID,23.2915,VALID,311,VALID,0,
2009-09-27, 00:02:04,VALID,998.814,VALID,0,VALID,85.0932,VALID,0,VALID,23.2719,VALID,311,VALID,0,
2009-09-27, 00:03:04,VALID,998.802,VALID,0,VALID,85.116,VALID,0,VALID,23.2719,VALID,311,VALID,0,
2009-09-27, 00:04:04,VALID,998.76,VALID,0,VALID,85.2305,VALID,0,VALID,23.2915,VALID,311,VALID,0,
2009-09-27, 00:05:04,VALID,998.775,VALID,0,VALID,85.2534,VALID,0,VALID,23.2932,VALID,311,VALID,0,
2009-09-27, 00:06:04,VALID,998.774,VALID,0,VALID,85.2915,VALID,0,VALID,23.2915,VALID,311,VALID,0.0503906,
2009-09-27, 00:07:04,VALID,998.757,VALID,0,VALID,85.2534,VALID,0,VALID,23.2915,VALID,311,VALID,0,
2009-09-27, 00:08:04,VALID,998.717,VALID,0,VALID,85.2763,VALID,0,VALID,23.2915,VALID,311,VALID,0,
2009-09-27, 00:09:04,VALID,998.721,VALID,0,VALID,85.0855,VALID,0,VALID,23.3127,VALID,311,VALID,0.384766,
2009-09-27, 00:10:04,VALID,998.683,VALID,0,VALID,84.91,VALID,0,VALID,23.311,VALID,311,VALID,0.15625,
2009-09-27, 00:11:04,VALID,998.658,VALID,0,VALID,84.4828,VALID,0,VALID,23.35,VALID,139,VALID,0.700391,
2009-09-27, 00:12:04,VALID,998.695,VALID,0,VALID,84.2157,VALID,0,VALID,23.4103,VALID,139,VALID,0.882031,
2009-09-27, 00:13:04,VALID,998.672,VALID,0,VALID,84.2005,VALID,0,VALID,23.4103,VALID,139,VALID,0.875,
2009-09-27, 00:14:04,VALID,998.643,VALID,0,VALID,84.4828,VALID,0,VALID,23.5061,VALID,116,VALID,0.936328,
2009-09-27, 00:15:04,VALID,998.608,VALID,0,VALID,84.3989,VALID,0,VALID,23.5061,VALID,129,VALID,0.948438,
2009-09-27, 00:16:04,VALID,998.595,VALID,0,VALID,83.4528,VALID,0,VALID,23.4671,VALID,122,VALID,1.90937,
2009-09-27, 00:17:04,VALID,998.561,VALID,0,VALID,83.1552,VALID,0,VALID,23.5061,VALID,124,VALID,1.62344,
2009-09-27, 00:18:04,VALID,998.57,VALID,0,VALID,82.9798,VALID,0,VALID,23.5433,VALID,138,VALID,1.75352,
2009-09-27, 00:19:04,VALID,998.549,VALID,0,VALID,82.8043,VALID,0,VALID,23.6036,VALID,125,VALID,1.67344,
2009-09-27, 00:20:04,VALID,998.553,VALID,0,VALID,82.6059,VALID,0.112286,VALID,23.6214,VALID,121,VALID,1.49023,
2009-09-27, 00:21:04,VALID,998.549,VALID,0,VALID,82.4838,VALID,0,VALID,23.6214,VALID,123,VALID,1.36719,
2009-09-27, 00:22:04,VALID,998.562,VALID,0,VALID,82.316,VALID,0.112286,VALID,23.6409,VALID,136,VALID,1.48828,
2009-09-27, 00:23:04,VALID,998.51,VALID,0,VALID,82.2702,VALID,0,VALID,23.6409,VALID,131,VALID,1.05273,
2009-09-27, 00:24:04,VALID,998.461,VALID,0,VALID,82.1329,VALID,0,VALID,23.6409,VALID,122,VALID,0.909766,
2009-09-27, 00:25:04,VALID,998.487,VALID,0,VALID,82.1252,VALID,0.112286,VALID,23.6409,VALID,124,VALID,0.983203,
2009-09-27, 00:26:04,VALID,998.457,VALID,0,VALID,82.0642,VALID,0.112286,VALID,23.6817,VALID,122,VALID,1.64609,
2009-09-27, 00:27:04,VALID,998.453,VALID,0,VALID,81.9574,VALID,0,VALID,23.6799,VALID,115,VALID,1.44883,
2009-09-27, 00:28:04,VALID,998.461,VALID,0,VALID,81.904,VALID,0.112286,VALID,23.7207,VALID,119,VALID,1.17969,
2009-09-27, 00:29:04,VALID,998.423,VALID,0,VALID,81.8811,VALID,0,VALID,23.7207,VALID,117,VALID,1.12422,
2009-09-27, 00:30:04,VALID,998.386,VALID,0,VALID,81.8582,VALID,0,VALID,23.7207,VALID,115,VALID,1.08633,
2009-09-27, 00:31:04,VALID,998.372,VALID,0,VALID,81.8582,VALID,0,VALID,23.742,VALID,116,VALID,0.967969,
2009-09-27, 00:32:04,VALID,998.351,VALID,0,VALID,81.9803,VALID,0,VALID,23.7225,VALID,116,VALID,0.690234,
2009-09-27, 00:33:04,VALID,998.356,VALID,0,VALID,82.0566,VALID,0,VALID,23.6622,VALID,132,VALID,0.673437,
2009-09-27, 00:34:04,VALID,998.333,VALID,0,VALID,82.0184,VALID,0,VALID,23.664,VALID,134,VALID,0.690625,
2009-09-27, 00:35:04,VALID,998.356,VALID,0,VALID,82.1329,VALID,0,VALID,23.6232,VALID,132,VALID,0.851172,
2009-09-27, 00:36:04,VALID,998.32,VALID,0,VALID,82.0642,VALID,0,VALID,23.6232,VALID,137,VALID,1.25781,
2009-09-27, 00:37:04,VALID,998.293,VALID,0,VALID,82.0947,VALID,0,VALID,23.6232,VALID,119,VALID,1.32305,
2009-09-27, 00:38:04,VALID,998.274,VALID,0,VALID,81.5683,VALID,0,VALID,23.664,VALID,118,VALID,1.79492,
2009-09-27, 00:39:04,VALID,998.297,VALID,0,VALID,80.8892,VALID,0,VALID,23.742,VALID,139,VALID,1.7293,
2009-09-27, 00:40:04,VALID,998.281,VALID,0,VALID,80.7214,VALID,0,VALID,23.7793,VALID,135,VALID,1.41641,
2009-09-27, 00:41:04,VALID,998.255,VALID,0,VALID,80.6146,VALID,0,VALID,23.8201,VALID,134,VALID,1.45781,
2009-09-27, 00:42:04,VALID,998.289,VALID,0,VALID,80.8129,VALID,0,VALID,23.8183,VALID,138,VALID,1.375,
2009-09-27, 00:43:04,VALID,998.275,VALID,0,VALID,80.7595,VALID,0,VALID,23.8201,VALID,143,VALID,1.47227,
2009-09-27, 00:44:04,VALID,998.236,VALID,0,VALID,80.9426,VALID,0,VALID,23.7988,VALID,151,VALID,1.53281,
2009-09-27, 00:45:04,VALID,998.221,VALID,0,VALID,81.0647,VALID,0,VALID,23.7988,VALID,142,VALID,1.72344,
2009-09-27, 00:46:04,VALID,998.176,VALID,0,VALID,80.79,VALID,0,VALID,23.8396,VALID,147,VALID,1.59961,
2009-09-27, 00:47:04,VALID,998.157,VALID,0,VALID,80.7138,VALID,0,VALID,23.8573,VALID,143,VALID,1.77539,
2009-09-27, 00:48:04,VALID,998.123,VALID,0,VALID,80.4849,VALID,0,VALID,23.8963,VALID,149,VALID,1.83164,
2009-09-27, 00:49:04,VALID,998.114,VALID,0,VALID,80.05,VALID,0,VALID,23.9549,VALID,146,VALID,2.075,
2009-09-27, 00:50:04,VALID,998.065,VALID,0,VALID,79.8058,VALID,0,VALID,24.0134,VALID,142,VALID,1.98008,
2009-09-27, 00:51:04,VALID,998.019,VALID,0,VALID,79.7448,VALID,0,VALID,24.0329,VALID,138,VALID,1.68242,
2009-09-27, 00:52:04,VALID,997.991,VALID,0,VALID,79.287,VALID,0,VALID,24.0329,VALID,134,VALID,1.84063,
2009-09-27, 00:53:04,VALID,997.932,VALID,0,VALID,79.1421,VALID,0,VALID,24.0738,VALID,142,VALID,1.71914,
2009-09-27, 00:54:04,VALID,997.954,VALID,0,VALID,78.9742,VALID,0,VALID,24.0915,VALID,138,VALID,1.78359,
2009-09-27, 00:55:04,VALID,997.956,VALID,0,VALID,79.1726,VALID,0,VALID,24.1128,VALID,135,VALID,1.5707,
2009-09-27, 00:56:04,VALID,997.893,VALID,0,VALID,79.3175,VALID,0,VALID,24.0933,VALID,133,VALID,1.49023,
2009-09-27, 00:57:04,VALID,997.885,VALID,0,VALID,79.2489,VALID,0,VALID,24.0329,VALID,135,VALID,1.69102,
2009-09-27, 00:58:04,VALID,997.866,VALID,0,VALID,79.1878,VALID,0,VALID,24.0329,VALID,126,VALID,1.52617,
2009-09-27, 00:59:04,VALID,997.874,VALID,0,VALID,79.287,VALID,0,VALID,24.0525,VALID,128,VALID,1.35117,
2009-09-27, 01:00:04,VALID,997.845,VALID,0,VALID,79.2794,VALID,0,VALID,24.0543,VALID,128,VALID,1.425,
2009-09-27, 01:01:04,VALID,997.816,VALID,0,VALID,79.2031,VALID,0,VALID,24.0329,VALID,123,VALID,1.38164,
2009-09-27, 01:02:04,VALID,997.778,VALID,0,VALID,79.0886,VALID,0,VALID,24.0329,VALID,111,VALID,1.50312,
2009-09-27, 01:03:04,VALID,997.793,VALID,0,VALID,79.4472,VALID,0,VALID,24.0153,VALID,107,VALID,1.42539,
2009-09-27, 01:04:04,VALID,997.747,VALID,0,VALID,79.3709,VALID,0,VALID,23.9549,VALID,102,VALID,1.35625,
2009-09-27, 01:05:04,VALID,997.774,VALID,0,VALID,79.8898,VALID,0,VALID,23.9549,VALID,93,VALID,0.955859,
2009-09-27, 01:06:04,VALID,997.778,VALID,0,VALID,80.4238,VALID,0,VALID,23.8982,VALID,91,VALID,0.792969,
2009-09-27, 01:07:04,VALID,997.781,VALID,0,VALID,81.0113,VALID,0,VALID,23.8201,VALID,91,VALID,0.696094,
2009-09-27, 01:08:04,VALID,997.769,VALID,0,VALID,81.492,VALID,0,VALID,23.7402,VALID,91,VALID,0.8,
2009-09-27, 01:09:04,VALID,997.794,VALID,0,VALID,81.7819,VALID,0,VALID,23.6622,VALID,90,VALID,0.766797,
2009-09-27, 01:10:04,VALID,997.814,VALID,0,VALID,82.0718,VALID,0,VALID,23.6232,VALID,90,VALID,0.564844,
2009-09-27, 01:11:04,VALID,997.796,VALID,0,VALID,82.4304,VALID,0,VALID,23.5451,VALID,88,VALID,0.480469,
2009-09-27, 01:12:04,VALID,997.796,VALID,0,VALID,82.8272,VALID,0,VALID,23.4866,VALID,88,VALID,0.265234,
2009-09-27, 01:13:04,VALID,997.8,VALID,0,VALID,83.2086,VALID,0,VALID,23.4866,VALID,20,VALID,0.510938,
2009-09-27, 01:14:04,VALID,997.758,VALID,0,VALID,83.3383,VALID,0,VALID,23.4103,VALID,336,VALID,0.677344,
2009-09-27, 01:15:04,VALID,997.757,VALID,0,VALID,83.2315,VALID,0,VALID,23.389,VALID,338,VALID,0.717188,
2009-09-27, 01:16:04,VALID,997.744,VALID,0,VALID,83.056,VALID,0,VALID,23.389,VALID,337,VALID,0.615234,
2009-09-27, 01:17:04,VALID,997.734,VALID,0,VALID,82.9874,VALID,0,VALID,23.389,VALID,309,VALID,0.790234,
2009-09-27, 01:18:04,VALID,997.697,VALID,0,VALID,82.9569,VALID,0,VALID,23.4085,VALID,309,VALID,0.567187,
2009-09-27, 01:19:04,VALID,997.712,VALID,0,VALID,82.8348,VALID,0,VALID,23.428,VALID,309,VALID,0.238672,
2009-09-27, 01:20:04,VALID,997.699,VALID,0,VALID,82.7814,VALID,0,VALID,23.428,VALID,309,VALID,0.271094,
2009-09-27, 01:21:04,VALID,997.708,VALID,0,VALID,82.5296,VALID,0,VALID,23.4475,VALID,309,VALID,0.202344,
2009-09-27, 01:22:04,VALID,997.698,VALID,0,VALID,82.377,VALID,0,VALID,23.4493,VALID,329,VALID,0.685938,
2009-09-27, 01:23:04,VALID,997.741,VALID,0,VALID,82.3541,VALID,0,VALID,23.4671,VALID,330,VALID,0.465234,
2009-09-27, 01:24:04,VALID,997.75,VALID,0,VALID,82.2626,VALID,0,VALID,23.4671,VALID,330,VALID,0.407813,
2009-09-27, 01:25:04,VALID,997.758,VALID,0,VALID,82.3389,VALID,0,VALID,23.4475,VALID,340,VALID,0.617578,
2009-09-27, 01:26:04,VALID,997.763,VALID,0,VALID,82.316,VALID,0,VALID,23.4475,VALID,26,VALID,1.06953,
2009-09-27, 01:27:04,VALID,997.768,VALID,0,VALID,82.6746,VALID,0,VALID,23.3872,VALID,36,VALID,1.27031,
2009-09-27, 01:28:04,VALID,997.772,VALID,0,VALID,82.1939,VALID,0,VALID,23.4103,VALID,52,VALID,1.21289,
2009-09-27, 01:29:04,VALID,997.745,VALID,0,VALID,81.9574,VALID,0,VALID,23.35,VALID,57,VALID,0.915625,
2009-09-27, 01:30:04,VALID,997.724,VALID,0,VALID,82.3389,VALID,0,VALID,23.2719,VALID,58,VALID,1.225,
2009-09-27, 01:31:04,VALID,997.694,VALID,0,VALID,82.4609,VALID,0,VALID,23.2719,VALID,55,VALID,1.18086,
2009-09-27, 01:32:04,VALID,997.68,VALID,0,VALID,82.7203,VALID,0,VALID,23.2329,VALID,43,VALID,1.06914,
2009-09-27, 01:33:04,VALID,997.648,VALID,0,VALID,82.8653,VALID,0,VALID,23.1744,VALID,34,VALID,0.794531,
2009-09-27, 01:34:04,VALID,997.606,VALID,0,VALID,83.1095,VALID,0,VALID,23.0964,VALID,33,VALID,0.751562,
2009-09-27, 01:35:04,VALID,997.617,VALID,0,VALID,83.4604,VALID,0,VALID,23.0591,VALID,33,VALID,0.563672,
2009-09-27, 01:36:04,VALID,997.574,VALID,0,VALID,83.8419,VALID,0,VALID,23.0201,VALID,33,VALID,1.09063,
2009-09-27, 01:37:04,VALID,997.549,VALID,0,VALID,83.2392,VALID,0,VALID,23.0769,VALID,24,VALID,1.12617,
2009-09-27, 01:38:04,VALID,997.526,VALID,0,VALID,82.6746,VALID,0,VALID,23.1939,VALID,19,VALID,1.11523,
2009-09-27, 01:39:04,VALID,997.545,VALID,0,VALID,82.2473,VALID,0,VALID,23.2915,VALID,7,VALID,0.944531,
2009-09-27, 01:40:04,VALID,997.557,VALID,0,VALID,82.0032,VALID,0,VALID,23.2719,VALID,4,VALID,0.433203,
2009-09-27, 01:41:04,VALID,997.531,VALID,0,VALID,82.3999,VALID,0,VALID,23.1744,VALID,4,VALID,0.201172,
2009-09-27, 01:42:04,VALID,997.485,VALID,0,VALID,82.7356,VALID,0,VALID,23.0964,VALID,4,VALID,0.325391,
2009-09-27, 01:43:04,VALID,997.534,VALID,0,VALID,83.0484,VALID,0,VALID,22.9988,VALID,4,VALID,0.162891,
2009-09-27, 01:44:04,VALID,997.557,VALID,0,VALID,83.613,VALID,0,VALID,22.9208,VALID,4,VALID,0.210156,
2009-09-27, 01:45:04,VALID,997.526,VALID,0,VALID,83.9258,VALID,0,VALID,22.903,VALID,4,VALID,0.128516,
2009-09-27, 01:46:04,VALID,997.445,VALID,0,VALID,84.1318,VALID,0,VALID,22.8623,VALID,4,VALID,0.666406,
2009-09-27, 01:47:04,VALID,997.364,VALID,0,VALID,84.0784,VALID,0,VALID,22.9013,VALID,28,VALID,1.14258,
2009-09-27, 01:48:04,VALID,997.406,VALID,0,VALID,83.6435,VALID,0,VALID,22.9615,VALID,52,VALID,0.944141,
2009-09-27, 01:49:04,VALID,997.419,VALID,0,VALID,83.8266,VALID,0,VALID,22.942,VALID,63,VALID,0.705078,
2009-09-27, 01:50:04,VALID,997.373,VALID,0,VALID,84.3073,VALID,0,VALID,22.8835,VALID,63,VALID,0.533984,
2009-09-27, 01:51:05,VALID,997.397,VALID,0,VALID,84.5896,VALID,0,VALID,22.8232,VALID,63,VALID,0.25,
2009-09-27, 01:52:05,VALID,997.37,VALID,0,VALID,84.9558,VALID,0,VALID,22.786,VALID,56,VALID,0.601953,
2009-09-27, 01:53:05,VALID,997.364,VALID,0,VALID,85.7035,VALID,0,VALID,22.7452,VALID,49,VALID,0.669141,
2009-09-27, 01:54:05,VALID,997.344,VALID,0,VALID,85.8256,VALID,0,VALID,22.7452,VALID,49,VALID,0.602734,
2009-09-27, 01:55:05,VALID,997.318,VALID,0,VALID,85.9858,VALID,0,VALID,22.786,VALID,49,VALID,0.589063,
2009-09-27, 01:56:05,VALID,997.355,VALID,0,VALID,86.0697,VALID,0,VALID,22.7647,VALID,49,VALID,0.314844,
2009-09-27, 01:57:05,VALID,997.349,VALID,0,VALID,85.9629,VALID,0,VALID,22.7469,VALID,49,VALID,0,
2009-09-27, 01:58:05,VALID,997.308,VALID,0,VALID,85.8332,VALID,0,VALID,22.7079,VALID,49,VALID,0.124609,
2009-09-27, 01:59:05,VALID,997.286,VALID,0,VALID,86.2986,VALID,0,VALID,22.6884,VALID,49,VALID,0.491016,
2009-09-27, 02:00:05,VALID,997.274,VALID,0,VALID,86.9472,VALID,0,VALID,22.6672,VALID,49,VALID,0.7,
2009-09-27, 02:01:05,VALID,997.286,VALID,0,VALID,85.9629,VALID,0,VALID,22.6494,VALID,62,VALID,0.517187,
2009-09-27, 02:02:05,VALID,997.259,VALID,0,VALID,86.642,VALID,0,VALID,22.5501,VALID,62,VALID,0.496875,
2009-09-27, 02:03:05,VALID,997.29,VALID,0,VALID,86.6267,VALID,0,VALID,22.4916,VALID,85,VALID,0.560547,
2009-09-27, 02:04:05,VALID,997.27,VALID,0,VALID,87.054,VALID,0,VALID,22.4738,VALID,105,VALID,0.503516,
2009-09-27, 02:05:05,VALID,997.192,VALID,0,VALID,87.0616,VALID,0,VALID,22.3941,VALID,65,VALID,0.397266,
2009-09-27, 02:06:05,VALID,997.228,VALID,0,VALID,87.3286,VALID,0,VALID,22.3746,VALID,64,VALID,0.113281,
2009-09-27, 02:07:05,VALID,997.22,VALID,0,VALID,87.7559,VALID,0,VALID,22.3356,VALID,64,VALID,0.220313,
2009-09-27, 02:08:05,VALID,997.249,VALID,0,VALID,87.9695,VALID,0,VALID,22.3356,VALID,64,VALID,0.226953,
2009-09-27, 02:09:05,VALID,997.195,VALID,0,VALID,88.0611,VALID,0,VALID,22.4153,VALID,64,VALID,0.24375,
2009-09-27, 02:10:05,VALID,997.185,VALID,0,VALID,87.9009,VALID,0,VALID,22.4331,VALID,64,VALID,0.251563,
2009-09-27, 02:11:05,VALID,997.185,VALID,0,VALID,87.6567,VALID,0,VALID,22.4738,VALID,64,VALID,0,
2009-09-27, 02:12:05,VALID,997.231,VALID,0,VALID,87.6186,VALID,0,VALID,22.4738,VALID,64,VALID,0,
2009-09-27, 02:13:05,VALID,997.187,VALID,0,VALID,87.6033,VALID,0,VALID,22.4738,VALID,64,VALID,0,
2009-09-27, 02:14:05,VALID,997.184,VALID,0,VALID,87.6567,VALID,0,VALID,22.4933,VALID,64,VALID,0,
2009-09-27, 02:15:05,VALID,997.16,VALID,0,VALID,87.6414,VALID,0,VALID,22.5128,VALID,64,VALID,0.222656,
2009-09-27, 02:16:05,VALID,997.156,VALID,0,VALID,87.5575,VALID,0,VALID,22.5323,VALID,64,VALID,0.23125,
2009-09-27, 02:17:05,VALID,997.147,VALID,0,VALID,87.4583,VALID,0,VALID,22.5323,VALID,64,VALID,0.514844,
2009-09-27, 02:18:05,VALID,997.146,VALID,0,VALID,87.321,VALID,0,VALID,22.5128,VALID,64,VALID,0.796484,
2009-09-27, 02:19:05,VALID,997.147,VALID,0,VALID,87.588,VALID,0,VALID,22.5111,VALID,59,VALID,0.712109,
2009-09-27, 02:20:05,VALID,997.129,VALID,0,VALID,87.3439,VALID,0,VALID,22.5306,VALID,35,VALID,0.728516,
2009-09-27, 02:21:05,VALID,997.138,VALID,0,VALID,87.3897,VALID,0,VALID,22.5323,VALID,34,VALID,0.458984,
2009-09-27, 02:22:05,VALID,997.135,VALID,0,VALID,87.1074,VALID,0,VALID,22.5111,VALID,34,VALID,0.4125,
2009-09-27, 02:23:05,VALID,997.126,VALID,0,VALID,86.8327,VALID,0,VALID,22.4721,VALID,34,VALID,0.559375,
2009-09-27, 02:24:05,VALID,997.075,VALID,0,VALID,87.054,VALID,0,VALID,22.4136,VALID,34,VALID,0.795313,
2009-09-27, 02:25:05,VALID,997.111,VALID,0,VALID,87.9543,VALID,0,VALID,22.3746,VALID,38,VALID,0.976563,
2009-09-27, 02:26:05,VALID,997.101,VALID,0,VALID,88.0306,VALID,0,VALID,22.3356,VALID,43,VALID,0.842969,
2009-09-27, 02:27:05,VALID,997.063,VALID,0,VALID,88.1297,VALID,0,VALID,22.2771,VALID,43,VALID,0.926953,
2009-09-27, 02:28:05,VALID,997.071,VALID,0,VALID,88.4654,VALID,0,VALID,22.2186,VALID,29,VALID,0.746875,
2009-09-27, 02:29:05,VALID,997.07,VALID,0,VALID,88.6104,VALID,0,VALID,22.16,VALID,29,VALID,0.320313,
2009-09-27, 02:30:05,VALID,997.042,VALID,0,VALID,88.7325,VALID,0,VALID,22.1015,VALID,29,VALID,0.176953,
2009-09-27, 02:31:05,VALID,997.046,VALID,0,VALID,88.8622,VALID,0,VALID,22.0837,VALID,29,VALID,0,
2009-09-27, 02:32:05,VALID,997.004,VALID,0,VALID,89.2666,VALID,0,VALID,22.0235,VALID,58,VALID,0.570313,
2009-09-27, 02:33:05,VALID,996.953,VALID,0,VALID,89.5641,VALID,0,VALID,22.0235,VALID,75,VALID,0.763672,
2009-09-27, 02:34:05,VALID,996.957,VALID,0,VALID,89.8846,VALID,0,VALID,22.0642,VALID,75,VALID,0.944531,
2009-09-27, 02:35:05,VALID,996.95,VALID,0,VALID,90.0143,VALID,0,VALID,22.0625,VALID,76,VALID,0.939844,
2009-09-27, 02:36:05,VALID,996.968,VALID,0,VALID,89.7396,VALID,0,VALID,22.043,VALID,76,VALID,0.881641,
2009-09-27, 02:37:05,VALID,996.969,VALID,0,VALID,89.6557,VALID,0,VALID,22.004,VALID,89,VALID,0.692969,
2009-09-27, 02:38:05,VALID,996.972,VALID,0,VALID,89.5717,VALID,0,VALID,22.0057,VALID,90,VALID,0.226563,
2009-09-27, 02:39:05,VALID,996.951,VALID,0,VALID,89.587,VALID,0,VALID,21.9455,VALID,90,VALID,0.0707031,
2009-09-27, 02:40:05,VALID,996.981,VALID,0,VALID,89.6938,VALID,0,VALID,21.9065,VALID,90,VALID,0.0101562,
2009-09-27, 02:41:05,VALID,997.012,VALID,0,VALID,89.9227,VALID,0,VALID,21.9065,VALID,90,VALID,0.310547,
2009-09-27, 02:42:05,VALID,997.048,VALID,0,VALID,90.1058,VALID,0,VALID,21.9065,VALID,90,VALID,0.226563,
2009-09-27, 02:43:05,VALID,997.013,VALID,0,VALID,90.1974,VALID,0,VALID,21.9082,VALID,90,VALID,0.230078,
2009-09-27, 02:44:05,VALID,997.044,VALID,0,VALID,90.4339,VALID,0,VALID,21.9082,VALID,35,VALID,0.592188,
2009-09-27, 02:45:05,VALID,997.065,VALID,0,VALID,90.3576,VALID,0,VALID,21.9082,VALID,35,VALID,0.235156,
2009-09-27, 02:46:05,VALID,997.035,VALID,0,VALID,90.5254,VALID,0,VALID,21.9082,VALID,35,VALID,0.699219,
2009-09-27, 02:47:05,VALID,997.031,VALID,0,VALID,90.6933,VALID,0,VALID,21.9065,VALID,57,VALID,0.680469,
2009-09-27, 02:48:05,VALID,997.044,VALID,0,VALID,90.5407,VALID,0,VALID,21.926,VALID,57,VALID,0.444531,
2009-09-27, 02:49:05,VALID,997.033,VALID,0,VALID,90.4186,VALID,0,VALID,21.926,VALID,30,VALID,1.08633,
2009-09-27, 02:50:05,VALID,997.065,VALID,0,VALID,90.3347,VALID,0,VALID,21.9472,VALID,34,VALID,0.617969,
2009-09-27, 02:51:05,VALID,997.088,VALID,0,VALID,90.1287,VALID,0,VALID,21.9065,VALID,93,VALID,0.686328,
2009-09-27, 02:52:05,VALID,997.066,VALID,0,VALID,90.3652,VALID,0,VALID,21.887,VALID,86,VALID,1.35078,
2009-09-27, 02:53:05,VALID,997.013,VALID,0,VALID,90.4568,VALID,0,VALID,21.9277,VALID,76,VALID,1.52539,
2009-09-27, 02:54:05,VALID,996.992,VALID,0,VALID,90.2813,VALID,0,VALID,21.9277,VALID,70,VALID,1.17852,
2009-09-27, 02:55:05,VALID,996.948,VALID,0,VALID,90.0982,VALID,0,VALID,21.9082,VALID,70,VALID,1.00586,
2009-09-27, 02:56:05,VALID,996.926,VALID,0,VALID,90.144,VALID,0,VALID,21.9082,VALID,74,VALID,0.941016,
2009-09-27, 02:57:05,VALID,996.947,VALID,0,VALID,90.1287,VALID,0,VALID,21.8692,VALID,83,VALID,0.945703,
2009-09-27, 02:58:05,VALID,996.987,VALID,0,VALID,90.1287,VALID,0,VALID,21.8692,VALID,86,VALID,0.848828,
2009-09-27, 02:59:05,VALID,996.976,VALID,0,VALID,90.3271,VALID,0,VALID,21.7895,VALID,86,VALID,0.714844,
2009-09-27, 03:00:05,VALID,996.957,VALID,0,VALID,90.3347,VALID,0,VALID,21.8106,VALID,86,VALID,0.482812,
2009-09-27, 03:01:05,VALID,996.956,VALID,0,VALID,90.3347,VALID,0,VALID,21.7895,VALID,86,VALID,0.117188,
2009-09-27, 03:02:05,VALID,996.951,VALID,0,VALID,90.3957,VALID,0,VALID,21.7895,VALID,86,VALID,0.336719,
2009-09-27, 03:03:05,VALID,996.942,VALID,0,VALID,90.4491,VALID,0,VALID,21.809,VALID,57,VALID,0.348437,
2009-09-27, 03:04:05,VALID,996.943,VALID,0,VALID,90.4568,VALID,0,VALID,21.809,VALID,355,VALID,0.330859,
2009-09-27, 03:05:05,VALID,996.98,VALID,0,VALID,90.4644,VALID,0,VALID,21.8285,VALID,355,VALID,0.354688,
2009-09-27, 03:06:05,VALID,996.971,VALID,0,VALID,90.4873,VALID,0,VALID,21.8692,VALID,355,VALID,0.196875,
2009-09-27, 03:07:05,VALID,996.954,VALID,0,VALID,90.4568,VALID,0,VALID,21.8887,VALID,355,VALID,0,
2009-09-27, 03:08:05,VALID,996.93,VALID,0,VALID,90.4263,VALID,0,VALID,21.887,VALID,355,VALID,0.596484,
2009-09-27, 03:09:05,VALID,996.955,VALID,0,VALID,90.35,VALID,0,VALID,21.9082,VALID,355,VALID,0.526563,
2009-09-27, 03:10:05,VALID,996.954,VALID,0,VALID,90.2508,VALID,0,VALID,21.8887,VALID,355,VALID,0.340625,
2009-09-27, 03:11:05,VALID,996.949,VALID,0,VALID,90.1592,VALID,0,VALID,21.848,VALID,355,VALID,0.0457031,
2009-09-27, 03:12:05,VALID,996.984,VALID,0,VALID,90.2203,VALID,0,VALID,21.8106,VALID,355,VALID,0,
2009-09-27, 03:13:05,VALID,996.962,VALID,0,VALID,90.3957,VALID,0,VALID,21.809,VALID,355,VALID,0,
2009-09-27, 03:14:05,VALID,996.995,VALID,0,VALID,90.5026,VALID,0,VALID,21.8285,VALID,355,VALID,0.303516,
2009-09-27, 03:15:05,VALID,997,VALID,0,VALID,90.556,VALID,0,VALID,21.848,VALID,355,VALID,0.280078,
2009-09-27, 03:16:05,VALID,996.963,VALID,0,VALID,90.5102,VALID,0,VALID,21.8675,VALID,355,VALID,0.01875,
2009-09-27, 03:17:05,VALID,996.951,VALID,0,VALID,90.4949,VALID,0,VALID,21.8675,VALID,355,VALID,0.472656,
2009-09-27, 03:18:05,VALID,996.962,VALID,0,VALID,90.5102,VALID,0,VALID,21.9082,VALID,41,VALID,0.659766,
2009-09-27, 03:19:05,VALID,996.986,VALID,0,VALID,90.3042,VALID,0,VALID,21.887,VALID,44,VALID,0.356641,
2009-09-27, 03:20:05,VALID,996.974,VALID,0,VALID,90.1897,VALID,0,VALID,21.887,VALID,31,VALID,0.646094,
2009-09-27, 03:21:05,VALID,997.004,VALID,0,VALID,89.793,VALID,0,VALID,21.8675,VALID,22,VALID,0.637891,
2009-09-27, 03:22:05,VALID,997.022,VALID,0,VALID,90.144,VALID,0,VALID,21.8285,VALID,58,VALID,0.710938,
2009-09-27, 03:23:05,VALID,997.022,VALID,0,VALID,90.2279,VALID,0,VALID,21.809,VALID,58,VALID,0.385547,
2009-09-27, 03:24:05,VALID,997.011,VALID,0,VALID,90.1134,VALID,0,VALID,21.7895,VALID,16,VALID,0.873047,
2009-09-27, 03:25:05,VALID,996.951,VALID,0,VALID,90.3194,VALID,0,VALID,21.7911,VALID,15,VALID,0.959766,
2009-09-27, 03:26:05,VALID,996.984,VALID,0,VALID,90.3271,VALID,0,VALID,21.77,VALID,17,VALID,1.03594,
2009-09-27, 03:27:05,VALID,996.962,VALID,0,VALID,90.4797,VALID,0,VALID,21.731,VALID,20,VALID,1.04492,
2009-09-27, 03:28:05,VALID,996.987,VALID,0,VALID,90.5788,VALID,0,VALID,21.7505,VALID,20,VALID,1.18633,
2009-09-27, 03:29:05,VALID,996.989,VALID,0,VALID,90.3576,VALID,0,VALID,21.7505,VALID,20,VALID,0.715625,
2009-09-27, 03:30:05,VALID,997.001,VALID,0,VALID,90.0448,VALID,0,VALID,21.7326,VALID,20,VALID,0.489062,
2009-09-27, 03:31:05,VALID,996.995,VALID,0,VALID,89.9761,VALID,0,VALID,21.6725,VALID,37,VALID,1.12969,
2009-09-27, 03:32:05,VALID,997.008,VALID,0,VALID,90.3118,VALID,0,VALID,21.6335,VALID,43,VALID,0.694922,
2009-09-27, 03:33:05,VALID,997.019,VALID,0,VALID,90.3423,VALID,0,VALID,21.5945,VALID,42,VALID,0.2875,
2009-09-27, 03:34:05,VALID,997.03,VALID,0,VALID,90.411,VALID,0,VALID,21.575,VALID,42,VALID,0.288281,
2009-09-27, 03:35:05,VALID,997.008,VALID,0,VALID,90.4339,VALID,0,VALID,21.536,VALID,28,VALID,0.341406,
2009-09-27, 03:36:05,VALID,997.057,VALID,0,VALID,90.3957,VALID,0,VALID,21.5165,VALID,32,VALID,0.428125,
2009-09-27, 03:37:05,VALID,997.023,VALID,0,VALID,90.7925,VALID,0,VALID,21.497,VALID,69,VALID,0.95625,
2009-09-27, 03:38:05,VALID,997.013,VALID,0,VALID,90.968,VALID,0,VALID,21.5165,VALID,68,VALID,0.75625,
2009-09-27, 03:39:05,VALID,996.994,VALID,0,VALID,90.9222,VALID,0,VALID,21.5165,VALID,39,VALID,0.4625,
2009-09-27, 03:40:05,VALID,997.011,VALID,0,VALID,90.8688,VALID,0,VALID,21.5181,VALID,13,VALID,0.130078,
2009-09-27, 03:41:05,VALID,996.995,VALID,0,VALID,90.9069,VALID,0,VALID,21.497,VALID,13,VALID,0.0257812,
2009-09-27, 03:42:05,VALID,996.987,VALID,0,VALID,90.9069,VALID,0,VALID,21.5376,VALID,13,VALID,0.320703,
2009-09-27, 03:43:05,VALID,997.028,VALID,0,VALID,90.8764,VALID,0,VALID,21.5376,VALID,14,VALID,0.0421875,
2009-09-27, 03:44:05,VALID,997.048,VALID,0,VALID,90.8688,VALID,0,VALID,21.5376,VALID,14,VALID,0.291797,
2009-09-27, 03:45:05,VALID,996.975,VALID,0,VALID,90.884,VALID,0,VALID,21.5165,VALID,14,VALID,0,
2009-09-27, 03:46:05,VALID,996.922,VALID,0,VALID,90.9527,VALID,0,VALID,21.5181,VALID,14,VALID,0,
2009-09-27, 03:47:05,VALID,996.925,VALID,0,VALID,91.0671,VALID,0,VALID,21.5376,VALID,14,VALID,0,